CET,Max TemperatureF,Mean TemperatureF,Min TemperatureF,Max Dew PointF,MeanDew PointF,Min DewpointF,Max Humidity, Mean Humidity, Min Humidity, Max Sea Level PressureIn, Mean Sea Level PressureIn, Min Sea Level PressureIn, Max VisibilityMiles, Mean VisibilityMiles, Min VisibilityMiles, Max Wind SpeedMPH, Mean Wind SpeedMPH, Max Gust SpeedMPH,PrecipitationIn, CloudCover, Events, WindDirDegrees
2011-11-1,59,52,46,54,49,45,100,88,63,30.01,29.95,29.77,6,4,0,13,4,,0.00,3,Fog,173
2011-11-2,60,56,53,55,51,45,94,81,67,29.77,29.46,29.33,6,6,2,25,17,45,0.00,5,Rain,187
2011-11-3,55,52,48,54,50,46,100,94,88,29.36,29.31,29.27,6,5,1,20,14,31,0.00,4,Rain,194
2011-11-4,53,48,44,48,47,45,100,92,82,29.65,29.45,29.33,6,5,1,9,4,,0.00,4,Fog-Rain,176
2011-11-5,55,50,42,50,47,43,100,94,77,30.18,29.92,29.65,6,6,4,16,4,,0.00,4,Fog-Rain,348
2011-11-6,55,47,39,46,43,39,100,86,58,30.24,30.21,30.18,6,6,3,13,5,,0.00,3,Fog-Rain,18
2011-11-7,62,53,44,48,44,39,93,76,45,30.21,30.08,29.98,6,6,6,10,5,,0.00,1,,105
2011-11-8,53,48,44,52,47,43,100,91,76,29.98,29.92,29.89,6,6,2,13,6,,0.00,5,Rain,145
2011-11-9,59,55,51,55,52,50,100,92,77,29.98,29.94,29.89,6,5,1,14,8,22,0.00,5,Fog-Rain,187
2011-11-10,59,55,51,54,52,50,100,90,72,29.95,29.88,29.77,6,5,1,21,9,29,0.00,5,Fog-Rain,171
2011-11-11,57,52,48,55,52,48,100,95,82,30.04,29.87,29.74,6,4,2,16,10,31,0.00,5,Fog-Rain,194
2011-11-12,66,57,48,55,49,43,100,73,43,30.04,29.89,29.77,6,6,6,22,9,34,0.00,2,,127
2011-11-13,66,60,53,54,50,43,94,73,43,29.92,29.85,29.74,6,6,4,21,11,39,0.00,3,Rain,160
2011-11-14,62,55,48,54,49,45,100,78,55,29.83,29.76,29.71,6,6,4,20,10,34,0.00,2,Rain,148
2011-11-15,53,48,44,52,47,41,100,90,82,29.92,29.81,29.77,6,5,1,10,6,,0.00,4,Fog-Rain,164
2011-11-16,55,50,46,52,49,46,100,94,82,30.18,30.07,29.92,6,4,0,9,5,,0.00,5,Fog-Rain,213
2011-11-17,59,48,37,48,45,37,100,91,59,30.21,30.17,30.12,6,4,0,7,2,,0.00,1,Fog,137
2011-11-18,55,48,42,48,45,41,100,89,77,30.09,29.92,29.77,6,6,5,14,8,,0.00,5,Rain,146
2011-11-19,60,52,44,50,48,45,100,88,63,29.83,29.77,29.71,6,6,6,10,5,,0.00,3,Fog-Rain,131
2011-11-20,60,53,46,54,50,46,100,92,68,29.95,29.87,29.83,6,6,2,7,2,,0.00,3,Fog-Rain,61
2011-11-21,53,50,46,54,51,45,100,98,93,29.95,29.89,29.83,6,3,0,21,3,32,0.00,6,Fog-Rain,199
2011-11-22,53,47,41,52,47,41,100,95,87,30.27,30.06,29.86,6,5,0,17,6,26,0.00,5,Fog-Rain,6
2011-11-23,59,54,50,54,51,48,100,90,77,30.36,30.31,30.24,6,6,6,15,11,28,0.00,5,,42
2011-11-24,64,53,42,50,47,41,100,81,55,30.39,30.35,30.33,3,3,3,10,5,,0.00,,,101
2011-11-25,60,48,35,54,47,36,100,91,72,30.54,30.47,30.39,6,4,0,8,3,,0.00,5,Fog,36
2011-11-26,62,50,37,52,46,37,100,92,59,30.51,30.47,30.39,6,3,0,8,2,,0.00,1,Fog,66
2011-11-27,57,50,44,52,48,45,100,93,77,30.39,30.34,30.27,6,4,0,12,5,,0.00,3,Fog,42
2011-11-28,51,42,32,48,44,32,100,95,87,30.27,30.21,30.18,6,4,0,9,3,,0.00,4,Fog,204
2011-11-29,53,48,44,52,48,43,100,93,77,30.27,30.18,30.09,6,3,1,17,9,29,0.00,6,Fog-Rain,190
2011-11-30,55,52,50,50,49,46,100,93,72,30.27,30.24,30.21,6,3,1,16,6,23,0.00,6,Fog-Rain,171